User: anonymous
Location: Parc des �les de St-Timoth�e
(45.2924°N, 74.0481°W)
Time: 10:21:41
(UTC-04:00)
Language:

Cosmos 2173 Rocket - Orbit

View from above orbital plane
View from above orbital plane
View from above satellite
View from above satellite

Ground track
Ground track

The orbit data is extracted from the following two-line orbital elements,

1 21797U 91081B   14208.34969348  .00000055  00000-0  39365-4 0  4913
2 21797 082.9557 126.2175 0038554 164.4362 333.6697 13.77275397139055
Epoch (UTC): 27 July 2014 08:23:33
Eccentricity: 0.0038554
inclination: 82.9557°
perigee height: 945 km
apogee height: 1002 km
right ascension of ascending node: 126.2175°
argument of perigee: 164.4362°
revolutions per day: 13.77275397
mean anomaly at epoch: 333.6697°
orbit number at epoch: 13905

The dashed part of the orbit path shows where the satellite is in the earth's shadow,  

DLR